Location: Binningen
(47.7924°N, 8.7261°E)
Time: 18:40:14
(UTC+00:00)

Cosmos 1356 Rocket - Pass Details

Date: 17 May 2021
Orbit: 543 x 598 km, 81.2° (Epoch: 21 June)

Event Time Altitude Azimuth Distance (km) Brightness Sun altitude
Rises 22:52:57 0° 344° (NNW) 2,851 8.4 -22.4°
Reaches altitude 10° 22:55:11 10° 341° (NNW) 1,946 7.2 -22.4°
Maximum altitude 22:59:25 57° 263° (W) 711 3.7 -22.5°
Enters shadow 22:59:43 55° 244° (WSW) 722 3.7 -22.5°
